Theta_e
307 312 316 316 316 317 318 318 317 317 319 320 320 321 323 324 326 327 328 329 330 331 332 332 332 332 332 332 331 331 330 331 331 330 329 329 330 331 331 330 330 329 328 327 327 326 325 325 324 324 324 322 323 323 323 323 322 322 321 321 320 320 319 319 318 317 315 315 316
305 308 312 313 313 315 317 317 316 317 318 320 321 322 324 326 327 327 327 329 330 331 332 332 332 332 332 332 331 331 330 331 331 330 329 329 330 330 330 330 330 329 328 328 327 326 325 325 324 324 323 323 322 323 323 323 323 322 321 321 320 320 320 319 318 317 316 315 315
302 306 309 313 316 317 317 318 318 318 319 320 322 324 325 327 327 327 329 329 329 330 331 332 332 332 333 333 332 331 331 330 331 330 330 330 330 330 330 330 330 328 327 327 327 326 326 325 324 322 322 323 322 322 322 323 322 322 321 321 321 320 320 319 318 318 317 317 316
300 303 306 308 312 315 318 319 320 320 320 321 323 324 327 328 328 328 329 329 329 329 330 331 331 332 332 333 332 331 331 328 330 330 330 330 330 330 330 330 329 328 328 327 327 326 326 325 324 324 323 322 322 322 322 323 322 322 322 321 321 320 320 319 319 319 319 318 317
298 300 302 305 307 311 315 319 321 322 323 323 324 326 326 327 327 327 328 327 328 329 329 330 331 332 332 332 332 332 330 329 327 328 330 330 330 330 330 330 329 328 328 327 327 326 326 325 325 324 324 323 322 322 322 322 322 322 321 322 321 320 320 319 319 319 319 319 318
296 298 300 302 304 306 309 312 317 322 325 324 324 324 324 325 326 326 326 327 327 328 328 328 328 328 330 332 331 331 330 330 329 329 330 330 330 330 330 330 330 329 328 327 327 326 326 325 324 324 323 323 323 322 322 322 322 322 321 321 321 321 320 319 319 319 319 318 318
295 296 298 300 302 304 306 308 312 316 321 323 323 322 322 323 324 325 325 326 327 327 326 325 326 327 328 332 331 331 330 330 330 330 330 330 330 329 329 329 329 329 328 327 326 326 325 325 324 323 322 320 322 322 322 322 322 321 321 321 320 320 320 319 319 319 318 318 317
294 295 297 298 300 302 304 306 309 313 318 321 323 322 321 322 323 323 324 325 326 326 326 326 327 328 329 330 331 330 330 329 330 330 330 330 330 329 329 329 329 328 328 327 326 326 325 325 324 324 323 322 322 322 322 322 321 321 321 321 320 320 320 320 319 319 318 317 317
293 294 296 297 300 301 303 305 307 310 314 319 321 322 321 321 322 323 323 324 324 325 326 327 327 328 328 330 331 330 330 329 329 329 330 330 329 329 329 329 329 328 327 327 326 326 325 325 324 324 324 323 323 322 322 322 321 321 321 320 320 319 319 320 319 318 318 318 317
292 293 295 296 298 300 302 303 305 308 311 316 320 322 321 317 320 322 324 324 324 325 326 327 327 327 327 329 330 330 330 329 329 329 330 329 328 329 329 329 328 328 327 326 326 326 325 325 324 324 324 323 323 322 322 322 321 321 321 321 320 319 318 319 318 318 318 317 317
291 293 294 295 297 298 300 301 304 307 310 314 318 321 321 318 320 322 323 324 324 324 325 327 327 326 327 328 329 329 329 329 328 329 329 329 328 328 329 329 328 328 327 326 326 325 325 324 324 324 323 323 323 322 322 322 321 321 320 320 319 318 318 317 318 317 318 317 317
291 292 293 294 296 297 299 300 302 305 309 313 317 320 322 321 321 322 322 323 323 324 325 326 326 326 327 328 329 328 328 329 328 328 329 329 329 329 329 329 328 327 327 326 326 325 325 324 324 323 323 322 323 322 322 322 321 321 321 320 320 319 318 317 317 317 318 318 317
291 292 293 294 295 296 298 299 302 305 308 311 315 318 321 322 321 321 322 323 323 324 325 326 326 326 327 327 328 328 328 328 328 328 328 329 329 329 329 328 328 327 327 326 326 325 325 324 324 323 323 322 323 322 322 321 321 321 320 320 319 319 318 317 317 317 317 317 316
291 291 292 293 294 295 297 298 301 304 308 311 314 317 320 322 321 321 321 323 323 324 325 325 325 326 326 326 327 327 328 328 327 327 327 328 329 328 328 328 328 327 326 326 326 326 325 324 324 323 323 322 322 322 321 321 321 321 320 320 319 318 318 317 317 317 317 317 316
290 291 292 293 294 295 296 298 301 304 307 311 314 317 320 321 320 320 321 322 323 324 324 324 325 325 326 326 327 327 327 328 327 326 326 326 328 328 328 328 327 327 326 326 326 325 325 325 324 324 323 323 323 322 321 321 321 320 320 320 319 319 318 317 317 317 317 317 316
290 291 291 292 293 294 296 298 300 304 307 310 314 316 319 321 320 320 320 322 323 324 324 324 325 326 326 325 326 326 327 327 326 326 326 326 327 328 328 327 327 327 326 326 325 325 325 325 325 324 324 323 323 322 321 321 321 321 320 320 319 319 318 317 317 317 317 317 316
289 290 291 292 293 294 295 297 300 303 305 309 312 315 318 321 321 320 319 320 322 323 324 324 325 326 326 325 325 326 327 327 326 325 325 325 327 328 328 327 327 327 326 326 325 325 325 325 325 325 324 323 323 322 322 321 321 321 320 320 319 319 319 317 317 317 317 317 316
289 290 291 292 293 294 295 297 299 301 304 307 310 313 317 319 320 320 319 319 321 322 323 324 325 326 326 326 326 326 326 327 326 325 325 326 326 327 328 328 327 327 327 326 326 325 325 325 325 325 324 324 323 323 322 321 321 321 320 320 320 319 319 318 318 318 318 317 316
289 290 291 291 292 294 295 296 298 301 303 305 308 312 315 319 320 320 320 320 321 322 323 324 325 326 326 326 326 325 325 326 326 326 326 326 326 327 328 328 327 327 327 326 326 325 325 325 325 325 324 324 323 323 323 322 321 321 321 320 320 319 319 319 319 319 318 318 317
289 290 291 292 293 294 295 296 299 301 303 305 308 310 314 317 319 320 320 321 321 322 323 324 325 326 326 326 326 325 325 326 326 326 326 326 326 327 327 328 327 327 327 326 326 325 325 325 325 325 324 324 323 323 323 322 322 321 321 321 320 320 319 319 319 319 319 319 318
289 290 291 292 293 294 295 297 299 300 302 304 307 310 313 316 319 320 320 320 321 322 323 324 325 325 325 326 326 326 326 326 326 326 326 325 325 326 327 328 327 327 327 326 326 325 325 325 325 325 324 323 323 322 322 322 321 321 321 321 321 320 319 319 319 319 319 319 318
289 290 291 293 294 295 296 297 299 300 302 304 306 310 312 316 318 320 321 321 322 322 323 324 325 325 325 326 326 326 326 326 327 327 326 325 325 326 327 327 327 327 326 326 326 326 325 325 325 325 324 324 323 322 322 321 321 321 321 320 320 320 320 319 320 319 319 319 319
289 290 292 293 294 295 296 297 299 300 302 304 306 310 313 316 318 320 321 322 321 322 323 324 325 325 326 326 326 326 326 327 327 327 326 326 326 326 327 327 327 327 326 326 326 326 326 325 325 325 325 324 323 322 322 321 321 321 321 320 320 320 320 320 320 320 320 319 319
290 291 292 293 294 295 296 298 299 300 302 304 308 311 314 317 319 320 321 321 321 322 323 324 325 325 326 326 326 326 326 327 327 327 326 326 326 327 327 327 327 327 326 326 324 323 323 323 325 325 324 324 323 323 322 322 321 321 321 320 320 320 320 320 320 320 319 319 319
290 291 292 294 294 295 297 298 299 301 303 305 309 313 316 319 320 320 320 321 321 322 322 324 324 325 326 326 326 326 327 327 327 327 326 326 327 327 327 327 327 327 326 323 314 311 311 315 320 323 325 324 324 323 323 322 322 322 321 321 320 320 320 320 319 319 319 319 319
291 292 293 294 295 296 297 298 300 301 304 307 311 314 318 320 320 320 320 320 321 322 322 323 324 323 323 326 326 327 327 327 327 327 326 326 326 327 327 326 327 327 325 318 308 305 306 308 310 315 320 326 325 324 323 322 322 322 322 321 320 320 319 319 319 319 319 319 320
292 292 293 294 295 296 297 299 301 303 306 309 313 317 319 320 320 319 320 320 320 321 322 323 323 321 320 326 327 327 327 327 327 327 327 326 326 326 326 326 327 327 323 312 304 303 304 304 306 308 314 325 325 324 323 322 322 322 321 321 320 320 319 319 319 319 319 319 320
292 293 293 294 295 296 298 300 302 304 307 312 316 318 320 319 319 319 319 320 320 320 321 322 322 322 323 326 327 327 327 327 327 327 327 327 326 326 326 326 327 325 318 306 303 302 303 304 304 305 308 316 323 325 323 323 322 322 321 321 320 320 320 320 320 319 319 319 319
293 294 294 295 296 297 299 301 303 306 310 314 318 319 319 319 319 319 319 319 319 320 321 321 321 323 325 326 326 327 327 327 327 327 326 326 326 326 326 326 326 319 310 301 301 302 302 303 303 303 305 309 320 324 324 323 322 322 321 320 320 320 320 320 320 320 319 319 319
295 295 295 296 297 298 300 302 305 308 312 316 319 320 320 318 319 319 319 319 319 320 321 321 322 324 325 326 326 327 327 327 327 326 326 326 326 326 326 323 322 312 303 298 300 302 302 303 302 302 302 302 310 318 323 322 321 320 319 319 320 320 320 320 321 320 320 320 319
297 297 297 297 298 300 301 303 307 310 314 317 319 320 321 319 319 319 319 319 319 319 319 321 323 324 325 326 326 326 326 327 326 326 326 325 323 323 323 320 315 306 299 297 300 302 302 302 301 301 299 298 304 312 319 319 319 319 319 319 319 319 320 320 320 320 320 319 319
299 298 298 298 299 301 303 305 309 312 315 317 318 319 320 320 320 320 319 319 319 319 320 322 323 324 325 326 326 326 326 326 325 325 325 324 322 320 318 315 310 303 298 296 299 300 301 301 301 300 299 299 303 310 315 313 312 310 308 305 304 305 308 313 315 316 317 318 318
301 301 300 300 301 302 304 308 311 314 316 317 317 318 319 319 320 320 320 319 320 320 322 323 323 323 324 324 324 323 323 322 320 319 316 316 316 314 311 306 303 298 295 295 297 298 299 300 300 300 300 299 303 306 306 302 300 298 297 296 295 295 295 296 299 303 307 310 313
299 302 303 302 302 304 306 310 313 315 316 316 317 317 318 318 318 318 317 316 317 317 317 317 318 319 319 319 319 319 318 316 317 317 316 313 310 307 305 303 300 296 293 295 296 298 298 299 299 298 298 296 300 300 299 296 296 295 294 293 292 292 292 293 293 295 297 300 303
297 299 303 305 305 306 308 311 314 315 316 316 316 316 317 317 317 316 315 312 310 310 310 309 309 310 311 312 313 314 315 314 315 314 312 309 306 303 300 298 297 294 293 294 296 297 297 297 297 296 296 297 298 298 297 295 293 292 291 290 290 290 290 290 291 291 292 294 297
294 297 300 304 308 310 311 313 314 315 316 315 316 316 316 316 317 315 311 306 305 304 303 302 302 302 301 300 301 303 305 308 307 306 304 303 302 300 298 297 296 294 293 294 295 296 295 295 295 296 296 298 298 296 295 293 292 290 289 289 289 288 289 289 289 289 290 291 293
293 294 296 299 301 304 307 310 313 313 314 313 313 313 313 313 313 310 307 303 302 300 299 298 297 296 296 295 295 295 296 298 299 299 299 299 299 298 297 296 296 294 293 294 295 295 295 295 295 295 296 297 296 294 293 292 290 289 288 287 287 287 288 288 288 288 289 289 290
291 292 294 295 296 298 300 302 305 306 307 306 305 305 306 306 306 305 303 300 299 297 296 295 294 293 293 292 292 292 292 293 294 295 295 296 296 296 295 295 294 293 293 293 294 294 295 294 294 294 295 295 294 293 292 291 289 288 287 286 286 286 287 287 287 288 288 288 289
290 291 291 293 294 294 295 296 297 299 300 300 300 301 301 301 301 300 299 297 296 295 293 292 292 291 291 291 291 290 289 290 290 290 291 292 293 293 293 293 292 292 292 292 293 293 294 294 293 293 294 294 294 293 292 290 288 287 286 286 286 285 286 286 286 287 287 287 288
289 289 290 290 291 292 292 293 293 295 296 296 297 297 297 297 297 296 296 295 294 293 292 291 290 290 290 289 289 288 287 287 287 288 288 289 290 290 291 291 291 291 291 291 292 293 293 293 293 293 293 293 293 292 291 289 288 286 286 285 285 285 285 285 285 286 286 286 287
288 288 288 288 289 289 290 290 291 292 292 293 294 294 294 294 294 294 293 293 292 291 290 290 289 288 288 288 287 286 285 285 285 286 286 287 288 289 289 289 290 290 290 291 291 292 292 292 293 293 293 293 293 292 291 289 287 286 285 285 285 284 284 284 284 285 285 285 286
Wind_Speed
15 11 7 6 5 5 5 7 7 7 8 9 9 9 9 10 10 9 9 8 8 7 8 9 10 10 11 14 16 16 16 15 15 14 14 15 14 14 14 12 12 12 12 12 12 12 12 13 11 10 8 7 8 8 8 8 9 9 8 8 7 7 8 9 9 9 8 8 6
15 12 8 6 5 5 5 7 7 8 9 10 10 10 11 11 11 11 10 10 8 8 8 8 9 11 12 15 16 16 16 16 16 15 15 15 15 15 14 13 12 12 12 12 11 11 11 12 11 9 8 8 8 8 9 9 9 9 9 10 8 7 7 8 8 9 8 8 6
14 12 9 5 3 3 4 6 9 11 12 12 12 12 12 13 12 10 9 9 9 8 8 7 9 11 13 15 15 15 15 16 16 16 15 15 16 15 15 13 13 13 12 12 12 11 10 12 10 9 8 8 9 9 9 9 9 9 10 11 8 7 6 7 8 8 7 6 6
14 13 10 9 8 7 7 8 12 15 16 13 13 13 12 12 10 8 8 8 9 9 8 8 9 10 12 13 15 15 15 15 16 16 15 15 16 16 16 14 14 13 13 12 12 12 12 12 9 8 8 10 11 10 9 9 9 9 9 9 7 7 7 7 7 7 7 7 6
13 13 12 11 9 9 10 11 14 16 15 11 10 9 10 10 8 7 7 8 9 9 10 10 10 9 10 12 15 15 15 15 15 15 15 15 16 16 16 16 15 14 13 12 13 13 13 12 8 7 8 10 10 10 11 11 10 9 8 7 7 7 7 7 7 7 7 6 6
12 12 11 10 9 10 11 13 15 15 12 8 7 8 9 9 8 7 8 9 9 10 11 11 10 10 10 12 14 15 15 15 14 14 15 15 15 15 16 16 16 14 13 12 13 14 13 12 8 6 7 8 8 10 11 12 11 10 9 8 7 7 7 8 7 6 6 7 7
13 12 11 10 11 11 12 13 14 12 10 8 9 11 12 11 10 10 10 10 9 10 10 9 10 10 11 12 13 14 14 14 14 14 15 15 15 15 16 15 16 15 14 13 13 13 13 12 8 7 6 6 7 9 11 12 11 11 10 9 8 7 8 9 7 7 7 9 10
14 12 11 11 11 12 14 15 14 12 10 8 11 13 15 14 13 12 11 10 10 10 10 9 11 12 12 13 13 14 14 15 14 14 15 14 15 15 15 15 15 15 14 14 13 13 13 11 8 7 7 6 6 8 10 13 13 13 12 11 9 8 8 9 8 8 8 10 11
14 13 12 11 11 11 13 14 14 13 12 11 13 14 15 14 14 13 12 10 10 10 10 10 12 13 14 14 14 14 14 14 15 14 14 14 15 15 15 14 15 15 14 14 14 14 14 10 8 8 7 7 7 8 10 13 14 14 13 11 10 9 8 9 10 10 10 11 12
15 14 13 12 11 11 12 13 14 14 14 13 13 13 13 12 12 13 12 11 10 11 11 12 13 14 14 15 15 14 14 14 14 14 14 14 15 15 15 14 15 15 14 13 13 14 14 10 9 9 8 8 9 10 11 13 14 14 13 10 10 11 11 10 10 11 11 11 12
17 16 15 13 13 12 12 13 12 12 12 12 12 11 11 11 12 12 12 11 11 12 13 13 14 15 15 15 15 14 14 13 14 14 14 14 14 15 15 14 15 15 14 14 13 13 12 10 10 11 11 9 10 11 12 13 14 14 13 10 12 13 12 11 11 11 11 11 12
17 17 16 15 15 14 13 13 12 11 11 12 12 10 9 11 12 13 13 13 13 14 14 14 15 15 15 14 14 14 14 14 14 14 14 15 15 15 15 14 14 15 15 14 13 12 11 11 12 13 13 12 10 10 11 13 13 13 13 12 13 13 14 13 12 11 10 11 11
17 17 16 16 16 15 14 13 12 11 11 12 12 11 10 10 12 13 13 14 14 14 13 14 15 15 15 14 14 13 13 14 14 14 14 14 14 15 15 14 14 14 15 14 13 12 12 13 13 14 14 13 11 10 11 13 13 13 13 13 14 14 14 14 13 12 11 11 11
18 17 16 16 16 15 14 13 11 10 10 11 11 10 10 10 10 12 12 13 14 13 13 13 13 14 14 14 13 14 14 14 15 15 14 14 14 14 14 14 14 14 14 13 13 14 14 14 14 14 15 15 13 12 13 14 14 14 14 14 14 14 14 14 13 13 12 13 12
18 17 16 16 15 14 13 12 11 10 10 11 10 9 9 9 9 10 12 12 13 13 12 12 12 12 13 13 14 14 15 15 15 15 15 14 14 14 14 14 14 14 13 13 13 14 15 15 15 15 14 15 14 14 13 14 14 14 14 14 14 14 14 14 14 13 13 14 13
18 18 17 16 15 14 13 12 10 10 10 10 10 9 9 8 8 9 11 12 12 11 10 12 12 12 12 12 13 14 15 15 15 15 15 14 15 15 15 14 14 14 14 14 14 14 14 15 15 14 14 14 14 14 14 14 14 14 14 14 14 14 14 14 14 14 14 14 14
18 18 17 16 16 15 14 13 11 10 10 11 11 11 10 9 7 8 10 11 10 9 10 12 12 11 11 11 12 13 14 14 15 15 15 15 15 15 15 15 15 15 15 15 14 14 14 15 14 14 14 14 14 14 14 14 14 14 14 14 14 14 14 14 14 14 14 14 14
18 17 17 16 16 16 15 14 12 12 12 13 12 12 11 10 8 7 8 10 9 9 11 12 12 12 12 13 12 12 12 14 15 15 15 15 16 16 15 15 15 15 15 15 15 15 15 15 15 14 13 13 13 13 13 14 14 14 14 14 14 14 14 13 14 14 14 14 13
17 17 17 16 16 15 15 14 13 13 13 13 13 12 12 11 10 8 8 9 9 10 12 13 12 13 13 14 14 13 12 14 15 16 15 15 15 15 15 15 15 15 15 15 14 15 15 15 15 14 13 13 13 13 13 13 13 14 14 14 14 14 13 13 14 14 14 14 13
17 17 16 16 15 15 14 14 14 14 14 13 13 14 13 13 11 9 9 10 10 11 12 13 13 13 14 15 15 14 13 13 15 16 16 14 14 15 15 15 15 15 15 14 14 14 15 15 15 14 14 13 13 13 13 13 13 13 13 13 13 13 13 13 14 14 14 14 13
17 17 16 15 14 14 14 14 14 14 14 14 15 15 14 13 11 10 10 11 10 11 11 13 14 15 15 16 16 16 15 13 15 15 15 14 14 14 14 14 14 14 14 14 13 14 14 15 14 14 13 13 13 14 14 13 13 13 13 12 13 13 13 13 14 15 14 14 13
17 16 15 14 14 13 13 13 14 14 14 15 15 15 15 14 12 11 10 10 10 10 12 13 14 15 16 17 17 17 15 13 14 15 15 14 13 13 13 12 13 13 13 14 13 13 14 14 14 14 13 12 13 13 13 13 13 13 13 13 13 13 13 14 15 15 14 14 14
16 16 15 14 13 13 13 13 13 14 14 15 15 15 15 14 12 11 10 9 10 11 12 12 13 15 16 17 17 16 16 14 15 14 14 14 13 12 12 12 13 13 13 13 13 13 13 14 14 13 13 12 12 13 13 13 13 13 13 14 13 13 14 14 14 14 14 13 13
16 16 14 12 13 13 13 13 13 14 14 15 15 15 14 13 12 11 10 10 10 11 12 11 11 13 15 15 16 16 16 15 15 15 15 14 13 12 12 11 12 13 13 11 12 12 13 12 12 12 12 11 11 12 12 13 13 13 13 14 14 14 14 14 14 13 13 12 12
16 15 14 13 14 14 13 13 13 14 14 15 15 15 14 13 11 10 10 10 11 12 12 11 11 12 12 13 14 15 15 15 15 15 15 14 13 13 12 11 11 11 11 10 12 13 13 12 12 11 11 11 10 10 11 12 12 13 14 14 14 13 13 13 13 12 12 12 12
15 15 15 14 14 14 14 14 14 14 15 15 16 15 14 12 11 10 10 11 11 11 11 11 10 10 11 11 13 14 14 13 14 15 15 14 14 13 12 11 10 9 9 10 13 15 15 15 13 12 11 10 10 10 10 10 12 13 14 14 13 13 12 12 12 12 12 12 12
14 14 14 14 14 14 14 14 14 14 15 16 16 14 12 11 10 10 11 11 10 10 9 9 9 9 10 11 13 14 14 12 13 14 15 15 15 14 13 11 10 9 9 11 14 16 17 16 15 13 12 10 10 9 9 9 11 13 14 13 13 12 12 12 13 13 13 12 12
13 13 13 13 14 14 14 14 14 14 15 15 14 12 10 10 10 10 10 10 9 8 8 7 8 8 8 9 12 14 14 13 13 13 14 14 15 15 13 11 10 9 10 12 15 16 17 17 16 15 13 11 10 10 9 10 10 11 12 12 11 11 11 11 12 13 13 13 12
12 12 13 13 14 14 14 13 14 14 14 14 12 9 8 9 10 11 10 10 10 9 8 7 6 6 7 9 11 12 13 13 12 12 13 14 14 14 12 10 9 8 9 13 15 16 17 17 16 15 13 11 9 8 8 8 9 9 9 9 9 9 10 11 11 12 12 13 13
11 11 12 12 13 13 13 13 13 13 12 11 10 7 6 9 9 10 10 11 10 9 8 7 7 8 9 10 10 11 12 12 12 12 13 14 13 12 9 6 5 5 7 13 16 17 17 17 16 13 11 7 5 4 5 5 5 6 6 6 8 9 10 10 11 12 12 11 12
10 10 11 12 12 13 13 13 13 12 11 9 8 6 3 7 9 9 9 9 8 8 7 8 10 10 11 10 11 11 11 11 11 12 13 13 11 8 7 7 5 4 6 12 16 17 17 17 15 13 10 7 5 4 3 3 3 3 3 3 4 5 6 8 10 11 12 12 12
10 10 11 11 12 12 13 13 12 11 9 8 6 6 4 2 5 7 7 6 6 7 8 9 11 11 11 10 11 11 11 10 10 10 10 10 8 7 6 7 5 3 5 11 15 16 16 16 15 13 10 8 5 5 5 5 5 5 6 7 6 5 4 1 2 5 8 10 11
13 10 10 11 12 13 13 13 11 10 8 6 5 4 3 3 2 5 6 6 6 6 7 8 9 9 9 9 10 10 9 7 7 6 5 6 7 7 6 6 4 3 3 9 13 15 15 14 13 12 11 9 8 8 9 9 8 8 8 9 9 10 10 9 7 5 2 1 4
17 13 10 10 12 13 13 12 10 8 7 6 5 3 1 2 4 5 6 6 7 7 7 6 6 5 5 5 5 5 5 4 4 3 3 6 8 9 7 5 3 2 2 9 12 14 15 15 15 15 14 12 11 10 11 11 9 9 9 10 10 10 10 10 10 10 8 7 4
19 17 14 9 9 11 11 10 9 8 8 8 7 5 3 2 3 5 6 7 9 10 11 10 10 10 10 10 8 4 1 2 0 2 4 7 9 9 8 5 3 2 4 10 13 15 17 18 18 17 16 13 11 11 11 12 11 10 11 11 11 11 11 12 11 10 10 9 8
18 18 17 14 9 6 5 6 7 9 10 10 9 8 6 4 3 5 8 9 11 12 12 12 12 13 14 14 14 12 9 6 6 7 8 8 9 10 9 6 4 5 7 12 16 18 19 20 20 18 15 12 10 10 11 11 10 11 11 12 12 12 13 12 12 11 11 10 9
18 18 17 17 15 14 11 7 4 5 6 6 5 5 4 3 2 6 9 10 12 13 13 13 14 15 15 16 15 15 14 13 12 11 10 8 8 9 9 8 7 7 9 13 17 20 20 21 20 18 15 12 11 11 10 9 9 10 11 12 12 13 12 11 11 11 12 12 11
18 18 18 17 17 16 16 14 10 7 4 4 4 4 4 5 6 7 9 10 12 13 14 15 15 15 16 16 16 16 16 16 15 14 12 10 9 9 10 10 10 9 9 12 16 20 21 22 21 18 15 12 12 11 10 9 9 10 11 11 11 11 10 9 9 11 13 15 15
18 18 18 18 18 17 17 16 15 13 10 9 8 9 9 9 9 9 10 11 13 14 15 15 15 15 15 16 17 18 18 18 18 16 15 13 12 11 11 11 11 10 10 11 14 18 21 23 22 20 17 13 12 10 9 10 11 11 11 10 10 10 10 9 9 10 12 15 18
17 18 18 18 18 17 17 17 16 14 12 10 10 10 10 10 11 12 12 13 14 15 15 15 14 14 14 16 19 19 20 19 18 17 16 15 14 14 13 12 13 13 13 13 14 16 20 22 22 20 17 13 11 10 9 10 11 11 11 9 9 9 9 9 9 9 10 13 15
16 17 18 18 18 18 18 17 16 14 13 12 11 10 9 9 12 13 14 13 14 14 13 13 14 15 16 18 19 20 20 20 18 17 16 16 15 14 14 13 14 14 14 15 15 16 17 19 19 18 16 12 11 10 10 10 11 12 11 10 9 9 9 9 9 9 10 11 11
Wind_Direction
329 316 284 247 235 232 230 225 229 228 226 225 224 222 220 218 214 210 206 203 194 185 181 181 183 184 183 182 184 185 184 182 182 181 181 182 182 181 180 182 185 184 182 178 177 175 175 174 170 168 167 169 172 174 177 179 180 181 182 183 181 177 175 177 180 182 183 183 185
324 316 293 248 231 229 234 232 231 225 220 218 217 218 218 217 211 205 201 201 194 188 183 182 183 182 181 181 184 185 184 183 182 182 182 184 183 182 180 181 182 182 178 175 173 174 176 176 172 168 164 165 168 172 175 180 179 180 182 184 181 177 177 180 182 182 182 183 184
316 314 309 292 282 260 247 241 230 223 218 215 215 216 217 217 212 204 197 196 192 188 184 183 182 180 179 178 182 184 185 184 183 182 182 184 185 183 182 181 181 179 177 173 173 174 176 177 175 171 166 164 168 170 173 178 177 179 181 184 180 177 178 182 182 182 182 185 184
312 317 327 351 346 314 278 255 232 224 221 217 217 218 219 219 214 205 195 193 191 189 187 185 181 178 176 176 180 183 185 185 183 182 182 184 184 183 182 180 179 178 176 174 173 173 175 177 177 174 169 166 167 170 172 175 175 177 180 183 180 178 179 181 181 182 184 186 185
316 324 335 349 339 313 288 271 244 233 228 224 219 219 221 222 215 205 195 192 192 191 189 185 181 178 175 174 178 181 183 183 182 182 182 183 184 183 182 180 179 177 175 174 173 173 173 175 177 177 174 170 171 172 173 171 171 174 177 179 181 181 180 179 181 182 184 185 185
320 325 326 322 306 293 282 276 265 257 249 238 229 224 223 222 213 203 196 195 193 190 186 182 181 177 174 174 177 179 181 182 182 182 182 182 183 183 183 181 180 177 174 173 173 172 172 174 176 177 176 174 175 175 172 167 168 171 175 177 181 181 180 179 180 181 182 182 183
313 311 305 295 286 280 277 278 279 276 267 248 237 230 225 220 209 201 197 195 191 186 183 180 181 178 176 174 177 179 181 182 182 182 182 181 182 182 182 182 180 178 175 172 171 171 171 173 175 176 176 175 177 177 174 168 167 170 174 176 178 179 179 178 179 180 181 181 182
306 301 295 288 283 281 281 283 287 286 276 252 237 230 226 218 207 198 194 192 188 185 182 182 182 180 178 176 178 179 181 181 182 183 182 181 180 181 182 182 180 178 175 172 171 171 172 173 175 175 175 176 178 179 177 172 170 172 175 176 175 177 180 179 180 180 180 180 183
303 299 295 291 286 284 284 286 288 288 282 266 245 234 226 217 205 196 191 191 188 184 182 182 183 181 179 178 179 180 181 181 182 182 183 181 179 180 181 181 180 178 175 171 171 172 172 173 177 177 176 177 179 181 180 177 174 175 175 175 173 175 179 180 179 180 180 180 183
302 301 299 294 291 288 288 289 289 288 285 276 259 244 230 218 206 197 192 190 186 183 182 183 182 182 181 180 180 180 181 181 182 183 183 182 179 179 180 180 179 177 174 171 171 172 172 174 177 177 177 178 179 181 181 181 179 177 175 173 172 174 177 179 178 178 179 180 183
301 301 301 299 298 297 296 296 294 292 288 282 270 254 235 221 211 202 195 189 185 184 184 183 182 182 183 182 181 180 180 181 182 183 183 182 180 179 180 180 178 176 173 170 170 171 173 176 178 178 178 179 180 181 182 183 182 179 176 173 172 173 176 179 177 178 180 180 181
301 301 302 302 302 303 302 302 299 296 293 290 283 269 247 226 216 207 198 190 186 186 185 184 182 183 183 183 181 179 179 180 181 182 182 182 180 180 179 178 177 175 173 170 170 172 175 178 179 179 178 178 180 181 182 183 184 181 178 174 173 174 176 179 178 179 180 179 178
300 301 301 301 303 303 303 301 298 294 292 289 286 278 262 238 222 211 201 193 189 187 186 184 183 183 184 184 180 178 177 179 180 181 182 182 180 180 179 177 176 175 173 171 172 174 177 179 181 180 179 178 180 181 181 182 183 183 180 176 176 177 178 179 179 178 178 177 177
299 299 299 299 300 300 299 298 295 291 287 284 282 278 269 251 229 216 208 199 193 189 186 183 184 184 185 183 179 177 176 178 179 180 181 181 180 180 179 177 176 175 174 173 174 176 179 180 182 182 181 179 180 180 180 181 183 184 182 179 179 179 179 179 179 178 177 177 177
299 298 298 298 298 297 295 293 291 288 285 283 282 280 273 259 234 219 211 206 197 190 185 181 183 184 184 182 178 175 175 177 179 180 181 180 180 180 179 177 176 175 174 174 176 178 180 181 182 183 183 182 181 180 180 181 184 185 184 182 181 180 179 179 178 178 178 178 178
298 297 297 296 295 293 291 289 287 286 286 286 287 286 279 266 241 221 212 209 200 191 183 179 180 181 181 180 176 174 174 176 179 180 181 181 181 181 180 178 176 176 175 175 177 180 182 183 183 183 184 183 182 181 180 181 184 185 186 185 183 181 179 179 179 179 180 179 178
295 295 294 293 291 289 287 285 285 286 287 289 292 290 285 273 251 225 212 208 200 189 180 178 176 176 177 177 175 173 173 176 179 181 183 184 183 182 180 179 178 177 176 176 177 180 183 184 183 183 184 184 183 182 181 181 183 185 186 186 184 182 180 179 180 181 181 181 180
291 290 289 288 286 285 284 283 284 285 286 288 289 289 286 278 260 236 216 208 198 187 179 176 174 173 174 174 173 172 173 176 179 182 185 185 184 182 181 180 179 178 178 177 178 179 182 184 183 183 183 183 183 183 182 181 183 185 186 186 185 183 181 180 182 184 184 183 182
286 284 283 281 281 281 281 282 283 283 284 285 285 285 283 279 265 245 223 210 200 188 179 173 172 172 173 173 173 173 174 177 180 183 185 186 185 184 182 181 179 179 179 179 179 179 181 183 182 182 182 182 182 183 183 182 184 185 185 185 184 182 181 182 187 188 187 185 183
280 279 277 276 276 277 278 280 281 282 282 282 282 281 280 277 266 247 225 211 202 190 179 172 170 171 172 172 173 173 175 178 180 182 185 185 185 185 184 182 180 179 179 179 178 179 180 183 182 181 181 181 181 182 182 182 183 184 184 185 184 182 181 183 189 191 190 187 184
277 275 274 273 273 274 275 277 278 279 279 279 278 277 276 274 264 247 227 210 199 188 179 173 171 171 172 172 173 175 176 179 181 182 183 184 185 185 184 182 180 179 179 179 178 178 180 182 182 181 181 180 180 181 181 181 182 183 183 184 183 182 182 186 192 193 192 188 186
276 275 274 273 272 272 273 275 276 276 276 275 274 273 271 268 260 246 229 210 196 187 181 177 174 172 172 173 174 175 176 178 181 182 182 182 184 184 183 181 179 179 179 179 178 178 179 181 181 180 179 179 180 180 180 179 180 182 183 184 183 183 184 188 192 193 192 190 187
276 276 275 274 273 273 274 274 275 275 274 273 271 269 266 262 255 243 227 208 194 187 183 179 177 175 174 174 174 174 175 177 180 181 181 181 182 181 180 180 180 180 180 180 178 177 177 180 181 180 179 178 179 179 179 179 180 181 182 184 183 184 185 187 190 192 192 191 190
276 276 276 275 275 276 276 276 275 274 272 270 268 266 262 256 249 237 221 204 194 187 184 181 178 176 175 174 174 173 174 175 177 178 179 179 179 178 178 179 181 181 182 181 179 178 177 179 181 181 179 178 178 179 180 180 180 181 182 183 184 185 186 187 189 190 192 192 191
276 276 276 275 276 276 276 276 274 273 272 270 268 264 258 249 238 225 212 201 193 188 183 179 176 175 174 173 173 173 173 173 174 174 175 177 177 176 177 179 181 182 183 182 179 177 176 178 179 179 179 178 178 179 181 183 183 183 183 183 184 184 185 187 190 192 193 194 194
275 275 276 276 277 277 276 275 273 273 272 271 269 263 254 239 225 213 203 197 192 187 181 176 172 171 170 170 172 173 173 173 172 172 173 174 175 176 177 180 181 182 182 180 177 176 176 177 177 176 176 177 177 179 182 185 186 186 184 183 182 182 183 187 192 195 196 196 195
274 274 275 277 277 277 276 274 274 273 272 272 270 263 249 226 211 200 195 191 186 181 176 171 168 166 166 168 171 172 173 173 172 172 173 174 175 176 178 180 182 183 181 177 175 175 175 175 173 172 172 175 177 180 183 185 186 186 184 182 180 180 183 188 193 195 196 196 195
271 272 273 275 275 275 275 275 274 273 273 276 274 262 239 211 197 191 186 182 176 171 167 165 163 161 163 167 171 173 173 171 171 172 173 174 176 177 178 180 182 182 178 171 171 172 172 172 170 169 169 172 177 181 184 185 185 185 183 180 180 183 188 193 194 195 195 194 193
266 267 269 271 272 272 273 273 273 273 275 282 281 264 226 199 190 184 178 173 168 165 164 161 157 158 162 168 171 172 172 170 170 171 172 174 176 177 178 178 179 175 168 164 167 169 170 169 168 167 167 169 174 180 183 183 181 180 180 178 181 190 197 198 196 195 194 193 192
262 262 263 265 267 268 270 270 271 273 277 285 292 275 221 191 185 179 174 169 167 166 163 156 155 159 164 167 168 169 170 171 171 171 171 172 172 170 166 156 150 149 155 160 164 166 167 167 163 159 154 147 151 156 159 156 160 166 172 175 183 191 197 199 198 196 195 193 192
268 261 259 260 262 264 265 267 269 272 275 282 299 299 255 189 182 178 174 169 166 160 154 151 155 160 164 165 166 168 170 170 170 170 170 169 161 147 126 107 102 119 148 157 160 162 162 159 153 144 131 112 103 102 107 106 116 131 144 150 168 184 193 195 196 196 195 194 192
290 271 261 259 260 260 262 263 265 267 270 274 293 311 317 199 174 167 162 155 148 146 147 151 156 159 161 162 165 167 167 166 167 166 163 157 142 120 97 82 78 94 135 149 150 151 150 147 142 135 127 115 96 77 65 57 56 59 60 59 50 41 31 31 179 190 192 191 191
320 297 270 258 256 256 257 258 260 261 262 263 271 296 332 3 99 120 122 119 118 122 130 139 146 149 151 152 155 156 157 159 168 163 143 114 107 99 87 67 49 43 108 137 135 135 135 134 131 126 119 109 92 79 72 66 63 61 60 57 51 45 40 35 29 27 33 163 184
335 325 300 263 252 249 250 253 254 254 253 250 248 245 263 33 65 85 95 95 91 86 82 81 89 97 103 105 126 149 166 177 180 162 109 85 87 85 78 62 32 18 102 131 124 122 121 118 114 110 104 97 93 88 84 80 75 72 69 65 58 53 48 43 36 28 21 14 22
341 338 331 305 263 247 243 248 249 247 244 242 239 228 204 125 86 78 76 77 78 76 72 66 63 60 56 49 45 49 103 194 167 63 71 84 89 87 81 67 47 72 114 124 115 112 110 108 106 104 101 97 95 92 89 85 80 76 72 69 61 55 49 45 39 31 23 16 17
346 345 345 343 333 312 280 262 249 240 236 236 235 230 221 199 126 84 73 75 77 77 75 72 68 64 59 53 46 42 40 44 52 58 64 79 90 93 91 80 70 83 104 115 110 108 106 105 103 101 99 96 95 93 91 90 85 79 74 69 62 56 51 47 43 37 31 25 23
351 351 352 356 360 1 356 339 299 254 237 237 242 242 236 217 115 82 78 81 80 79 77 75 73 71 69 67 61 55 50 49 53 55 57 61 78 89 91 82 72 74 90 108 110 110 108 106 103 101 99 98 99 99 98 96 90 81 74 68 63 59 56 53 48 44 40 36 33
356 357 360 4 8 10 10 8 9 16 31 46 48 51 57 69 73 77 80 83 84 83 81 79 80 81 82 81 75 66 58 52 51 49 45 40 48 66 78 78 70 69 79 99 110 113 111 108 105 104 104 106 107 106 104 99 92 84 78 73 68 63 59 57 54 50 47 44 44
1 3 6 11 13 15 17 17 17 19 26 39 51 59 66 71 74 75 77 80 84 85 86 86 88 90 90 88 81 72 62 55 51 47 43 37 35 44 58 70 68 66 69 82 101 108 110 108 107 107 108 109 111 109 105 100 94 89 85 82 77 70 63 58 56 54 52 50 50
5 9 12 15 18 20 21 22 19 18 20 31 45 57 68 77 80 80 79 79 81 84 86 88 90 90 89 86 80 74 67 60 54 50 46 42 38 38 45 57 61 61 62 66 81 94 102 106 108 109 110 111 111 110 106 102 97 93 90 86 82 76 69 62 60 58 56 53 52
10 14 17 20 21 23 24 24 21 19 21 29 40 51 64 77 84 85 85 84 83 83 85 86 86 85 83 80 79 77 73 67 60 54 51 47 42 39 39 45 52 55 57 58 65 76 87 97 103 107 110 112 112 110 107 104 99 96 93 89 86 83 79 72 66 62 59 57 55